Time,TemperatureF,DewpointF,PressureIn,WindDirection,WindDirectionDegrees,WindSpeedMPH,WindSpeedGustMPH,Humidity,HourlyPrecipIn,Conditions,Clouds,dailyrainin,SoftwareType,DateUTC
2013-03-09 00:00:00,31.7,24.4,30.34,WNW,284,2.0,6.0,74,0.00,,CLR,0.00,VWS V14.01,2013-03-09 05:00:00,
2013-03-09 00:05:00,31.3,24.3,30.34,West,276,4.0,4.0,75,0.00,,CLR,0.00,VWS V14.01,2013-03-09 05:05:00,
2013-03-09 00:10:00,31.4,24.4,30.34,WNW,283,1.0,4.0,75,0.00,,CLR,0.00,VWS V14.01,2013-03-09 05:10:00,
2013-03-09 00:15:00,31.2,24.5,30.34,WNW,285,0.0,4.0,76,0.00,,CLR,0.00,VWS V14.01,2013-03-09 05:15:00,
2013-03-09 00:20:00,30.8,24.1,30.35,WNW,285,0.0,4.0,76,0.00,,CLR,0.00,VWS V14.01,2013-03-09 05:20:00,
2013-03-09 00:25:00,30.4,24.1,30.35,West,281,2.0,4.0,77,0.00,,CLR,0.00,VWS V14.01,2013-03-09 05:25:00,
2013-03-09 00:30:00,30.4,24.1,30.35,WNW,290,2.0,2.0,77,0.00,,CLR,0.00,VWS V14.01,2013-03-09 05:30:00,
2013-03-09 00:35:00,30.4,24.4,30.35,West,281,2.0,3.0,78,0.00,,CLR,0.00,VWS V14.01,2013-03-09 05:35:00,
2013-03-09 00:40:00,30.3,24.6,30.35,WNW,290,3.0,4.0,79,0.00,,CLR,0.00,VWS V14.01,2013-03-09 05:40:00,
2013-03-09 00:45:00,30.3,24.6,30.34,West,260,0.0,4.0,79,0.00,,CLR,0.00,VWS V14.01,2013-03-09 05:45:00,
2013-03-09 00:50:00,30.2,24.5,30.34,West,280,0.0,4.0,79,0.00,,CLR,0.00,VWS V14.01,2013-03-09 05:50:00,
2013-03-09 00:55:00,30.2,24.2,30.35,WNW,295,0.0,5.0,78,0.00,,CLR,0.00,VWS V14.01,2013-03-09 05:55:00,
2013-03-09 01:00:00,29.9,23.9,30.34,WNW,296,0.0,0.0,78,0.00,,CLR,0.00,VWS V14.01,2013-03-09 06:00:00,
2013-03-09 01:05:00,29.7,23.7,30.34,WNW,296,1.0,1.0,78,0.00,,CLR,0.00,VWS V14.01,2013-03-09 06:05:00,
2013-03-09 01:10:00,29.5,23.8,30.35,WNW,297,0.0,2.0,79,0.00,,CLR,0.00,VWS V14.01,2013-03-09 06:10:00,
2013-03-09 01:15:00,29.2,23.5,30.34,WNW,297,0.0,2.0,79,0.00,,CLR,0.00,VWS V14.01,2013-03-09 06:15:00,
2013-03-09 01:20:00,28.9,23.2,30.34,WNW,297,0.0,2.0,79,0.00,,CLR,0.00,VWS V14.01,2013-03-09 06:20:00,
2013-03-09 01:25:00,28.7,23.3,30.35,SW,228,0.0,2.0,80,0.00,,CLR,0.00,VWS V14.01,2013-03-09 06:25:00,
2013-03-09 01:30:00,28.5,23.4,30.35,SW,228,0.0,2.0,81,0.00,,CLR,0.00,VWS V14.01,2013-03-09 06:30:00,
2013-03-09 01:35:00,28.4,23.3,30.35,West,274,1.0,1.0,81,0.00,,CLR,0.00,VWS V14.01,2013-03-09 06:35:00,
2013-03-09 01:40:00,28.3,23.2,30.35,West,274,0.0,1.0,81,0.00,,CLR,0.00,VWS V14.01,2013-03-09 06:40:00,
2013-03-09 01:45:00,28.2,23.1,30.35,West,275,0.0,1.0,81,0.00,,CLR,0.00,VWS V14.01,2013-03-09 06:45:00,
2013-03-09 01:50:00,28.0,23.2,30.35,West,264,1.0,2.0,82,0.00,,CLR,0.00,VWS V14.01,2013-03-09 06:50:00,
2013-03-09 01:55:00,28.1,23.6,30.35,WSW,239,1.0,2.0,83,0.00,,CLR,0.00,VWS V14.01,2013-03-09 06:55:00,
2013-03-09 02:00:00,28.0,23.5,30.35,West,264,1.0,2.0,83,0.00,,CLR,0.00,VWS V14.01,2013-03-09 07:00:00,
2013-03-09 02:05:00,28.0,23.8,30.35,WSW,244,0.0,2.0,84,0.00,,CLR,0.00,VWS V14.01,2013-03-09 07:05:00,
2013-03-09 02:10:00,28.0,23.8,30.35,West,267,0.0,2.0,84,0.00,,CLR,0.00,VWS V14.01,2013-03-09 07:10:00,
2013-03-09 02:15:00,28.0,23.8,30.35,WNW,285,2.0,3.0,84,0.00,,CLR,0.00,VWS V14.01,2013-03-09 07:15:00,
2013-03-09 02:20:00,28.3,23.8,30.35,West,265,1.0,3.0,83,0.00,,CLR,0.00,VWS V14.01,2013-03-09 07:20:00,
2013-03-09 02:25:00,28.4,23.6,30.35,WNW,290,1.0,3.0,82,0.00,,CLR,0.00,VWS V14.01,2013-03-09 07:25:00,
2013-03-09 02:30:00,28.5,23.7,30.35,WNW,285,2.0,5.0,82,0.00,,CLR,0.00,VWS V14.01,2013-03-09 07:30:00,
2013-03-09 02:35:00,28.5,23.7,30.35,WNW,287,1.0,2.0,82,0.00,,CLR,0.00,VWS V14.01,2013-03-09 07:35:00,
2013-03-09 02:40:00,28.5,23.7,30.35,WNW,285,2.0,6.0,82,0.00,,CLR,0.00,VWS V14.01,2013-03-09 07:40:00,
2013-03-09 02:45:00,28.6,23.8,30.34,WNW,296,5.0,6.0,82,0.00,,CLR,0.00,VWS V14.01,2013-03-09 07:45:00,
2013-03-09 02:50:00,28.6,23.8,30.34,NNW,335,4.0,6.0,82,0.00,,CLR,0.00,VWS V14.01,2013-03-09 07:50:00,
2013-03-09 02:55:00,28.6,23.8,30.35,WNW,290,5.0,6.0,82,0.00,,CLR,0.00,VWS V14.01,2013-03-09 07:55:00,
2013-03-09 03:00:00,28.6,23.8,30.35,WNW,297,5.0,6.0,82,0.00,,CLR,0.00,VWS V14.01,2013-03-09 08:00:00,
2013-03-09 03:05:00,28.6,23.8,30.35,NNW,328,2.0,4.0,82,0.00,,CLR,0.00,VWS V14.01,2013-03-09 08:05:00,
2013-03-09 03:10:00,28.4,23.6,30.35,NW,304,1.0,4.0,82,0.00,,CLR,0.00,VWS V14.01,2013-03-09 08:10:00,
2013-03-09 03:15:00,28.2,23.4,30.34,West,260,2.0,4.0,82,0.00,,CLR,0.00,VWS V14.01,2013-03-09 08:15:00,
2013-03-09 03:20:00,28.1,23.6,30.34,WNW,290,1.0,4.0,83,0.00,,CLR,0.00,VWS V14.01,2013-03-09 08:20:00,
2013-03-09 03:25:00,28.0,23.5,30.34,WNW,283,0.0,4.0,83,0.00,,CLR,0.00,VWS V14.01,2013-03-09 08:25:00,
2013-03-09 03:30:00,27.8,23.3,30.34,West,281,2.0,4.0,83,0.00,,CLR,0.00,VWS V14.01,2013-03-09 08:30:00,
2013-03-09 03:35:00,27.9,23.7,30.34,WNW,293,1.0,4.0,84,0.00,,CLR,0.00,VWS V14.01,2013-03-09 08:35:00,
2013-03-09 03:40:00,28.0,23.5,30.34,West,281,1.0,7.0,83,0.00,,CLR,0.00,VWS V14.01,2013-03-09 08:40:00,
2013-03-09 03:45:00,27.9,23.4,30.35,WNW,290,0.0,7.0,83,0.00,,CLR,0.00,VWS V14.01,2013-03-09 08:45:00,
2013-03-09 03:50:00,27.8,23.3,30.35,WNW,295,0.0,7.0,83,0.00,,CLR,0.00,VWS V14.01,2013-03-09 08:50:00,
2013-03-09 03:55:00,27.7,23.5,30.35,WNW,300,3.0,7.0,84,0.00,,CLR,0.00,VWS V14.01,2013-03-09 08:55:00,
2013-03-09 04:00:00,27.7,23.5,30.35,WNW,290,1.0,7.0,84,0.00,,CLR,0.00,VWS V14.01,2013-03-09 09:00:00,
2013-03-09 04:05:00,27.7,23.5,30.35,WNW,290,1.0,5.0,84,0.00,,CLR,0.00,VWS V14.01,2013-03-09 09:05:00,
2013-03-09 04:10:00,27.7,23.5,30.35,WNW,285,2.0,6.0,84,0.00,,CLR,0.00,VWS V14.01,2013-03-09 09:10:00,
2013-03-09 04:15:00,27.5,23.3,30.35,WNW,285,1.0,6.0,84,0.00,,CLR,0.00,VWS V14.01,2013-03-09 09:15:00,
2013-03-09 04:20:00,27.5,23.6,30.35,West,281,2.0,6.0,85,0.00,,CLR,0.00,VWS V14.01,2013-03-09 09:20:00,
2013-03-09 04:25:00,27.5,23.3,30.35,WNW,285,2.0,6.0,84,0.00,,CLR,0.00,VWS V14.01,2013-03-09 09:25:00,
2013-03-09 04:30:00,27.4,23.2,30.35,WNW,293,2.0,6.0,84,0.00,,CLR,0.00,VWS V14.01,2013-03-09 09:30:00,
2013-03-09 04:35:00,27.5,23.3,30.35,WNW,293,3.0,4.0,84,0.00,,CLR,0.00,VWS V14.01,2013-03-09 09:35:00,
2013-03-09 04:40:00,27.5,23.6,30.35,WNW,285,2.0,6.0,85,0.00,,CLR,0.00,VWS V14.01,2013-03-09 09:40:00,
2013-03-09 04:45:00,27.5,23.3,30.35,West,275,0.0,6.0,84,0.00,,CLR,0.00,VWS V14.01,2013-03-09 09:45:00,
2013-03-09 04:50:00,27.4,23.5,30.35,West,278,1.0,6.0,85,0.00,,CLR,0.00,VWS V14.01,2013-03-09 09:50:00,
2013-03-09 04:55:00,27.3,23.4,30.35,West,281,1.0,6.0,85,0.00,,CLR,0.00,VWS V14.01,2013-03-09 09:55:00,
2013-03-09 05:00:00,27.1,23.2,30.35,WNW,285,0.0,6.0,85,0.00,,CLR,0.00,VWS V14.01,2013-03-09 10:00:00,
2013-03-09 05:05:00,26.9,23.0,30.35,WNW,288,1.0,2.0,85,0.00,,CLR,0.00,VWS V14.01,2013-03-09 10:05:00,
2013-03-09 05:10:00,26.9,23.3,30.35,West,277,1.0,2.0,86,0.00,,CLR,0.00,VWS V14.01,2013-03-09 10:10:00,
2013-03-09 05:15:00,26.8,23.2,30.35,West,267,1.0,2.0,86,0.00,,CLR,0.00,VWS V14.01,2013-03-09 10:15:00,
2013-03-09 05:20:00,26.8,23.2,30.35,West,274,0.0,3.0,86,0.00,,CLR,0.00,VWS V14.01,2013-03-09 10:20:00,
2013-03-09 05:25:00,26.6,23.0,30.35,West,276,1.0,3.0,86,0.00,,CLR,0.00,VWS V14.01,2013-03-09 10:25:00,
2013-03-09 05:30:00,26.5,22.9,30.36,WNW,283,1.0,3.0,86,0.00,,CLR,0.00,VWS V14.01,2013-03-09 10:30:00,
2013-03-09 05:35:00,26.5,22.9,30.36,WNW,285,1.0,4.0,86,0.00,,CLR,0.00,VWS V14.01,2013-03-09 10:35:00,
2013-03-09 05:40:00,26.5,22.9,30.36,WNW,294,2.0,4.0,86,0.00,,CLR,0.00,VWS V14.01,2013-03-09 10:40:00,
2013-03-09 05:45:00,26.5,22.9,30.36,WNW,295,0.0,4.0,86,0.00,,CLR,0.00,VWS V14.01,2013-03-09 10:45:00,
2013-03-09 05:50:00,26.3,22.7,30.36,WNW,295,0.0,4.0,86,0.00,,CLR,0.00,VWS V14.01,2013-03-09 10:50:00,
2013-03-09 05:55:00,26.2,22.6,30.36,WNW,293,0.0,4.0,86,0.00,,CLR,0.00,VWS V14.01,2013-03-09 10:55:00,
2013-03-09 06:00:00,26.2,22.9,30.36,WNW,293,3.0,5.0,87,0.00,,CLR,0.00,VWS V14.01,2013-03-09 11:00:00,
2013-03-09 06:05:00,26.3,23.0,30.36,WNW,284,3.0,6.0,87,0.00,,CLR,0.00,VWS V14.01,2013-03-09 11:05:00,
2013-03-09 06:10:00,26.3,23.0,30.36,WNW,293,3.0,6.0,87,0.00,,CLR,0.00,VWS V14.01,2013-03-09 11:10:00,
2013-03-09 06:15:00,26.3,23.0,30.36,WNW,290,3.0,6.0,87,0.00,,CLR,0.00,VWS V14.01,2013-03-09 11:15:00,
2013-03-09 06:20:00,26.3,23.0,30.37,West,280,1.0,6.0,87,0.00,,CLR,0.00,VWS V14.01,2013-03-09 11:20:00,
2013-03-09 06:25:00,26.2,22.9,30.37,WNW,283,2.0,6.0,87,0.00,,CLR,0.00,VWS V14.01,2013-03-09 11:25:00,
2013-03-09 06:30:00,26.3,23.0,30.37,West,278,4.0,6.0,87,0.00,,CLR,0.00,VWS V14.01,2013-03-09 11:30:00,
2013-03-09 06:35:00,26.4,23.1,30.36,West,278,5.0,8.0,87,0.00,,CLR,0.00,VWS V14.01,2013-03-09 11:35:00,
2013-03-09 06:40:00,26.3,23.0,30.36,NNW,338,1.0,8.0,87,0.00,,CLR,0.00,VWS V14.01,2013-03-09 11:40:00,
2013-03-09 06:45:00,26.3,23.0,30.37,WNW,283,5.0,8.0,87,0.00,,CLR,0.00,VWS V14.01,2013-03-09 11:45:00,
2013-03-09 06:50:00,26.4,23.1,30.37,WNW,290,4.0,8.0,87,0.00,,CLR,0.00,VWS V14.01,2013-03-09 11:50:00,
2013-03-09 06:55:00,26.5,23.2,30.37,SW,228,1.0,8.0,87,0.00,,CLR,0.00,VWS V14.01,2013-03-09 11:55:00,
2013-03-09 07:00:00,26.5,23.2,30.37,West,276,2.0,8.0,87,0.00,,CLR,0.00,VWS V14.01,2013-03-09 12:00:00,
2013-03-09 07:05:00,26.4,23.1,30.37,WNW,283,3.0,7.0,87,0.00,,CLR,0.00,VWS V14.01,2013-03-09 12:05:00,
2013-03-09 07:10:00,26.6,23.3,30.37,West,281,2.0,7.0,87,0.00,,CLR,0.00,VWS V14.01,2013-03-09 12:10:00,
2013-03-09 07:15:00,26.9,23.6,30.38,WNW,293,0.0,7.0,87,0.00,,CLR,0.00,VWS V14.01,2013-03-09 12:15:00,
2013-03-09 07:20:00,27.3,24.0,30.37,WNW,290,3.0,7.0,87,0.00,,CLR,0.00,VWS V14.01,2013-03-09 12:20:00,
2013-03-09 07:25:00,27.5,23.9,30.38,West,276,1.0,7.0,86,0.00,,CLR,0.00,VWS V14.01,2013-03-09 12:25:00,
2013-03-09 07:30:00,27.7,24.1,30.38,WNW,287,4.0,7.0,86,0.00,,CLR,0.00,VWS V14.01,2013-03-09 12:30:00,
2013-03-09 07:35:00,27.9,24.3,30.38,WNW,290,4.0,7.0,86,0.00,,CLR,0.00,VWS V14.01,2013-03-09 12:35:00,
2013-03-09 07:40:00,28.3,24.7,30.38,West,277,1.0,8.0,86,0.00,,CLR,0.00,VWS V14.01,2013-03-09 12:40:00,
2013-03-09 07:45:00,28.8,24.9,30.39,WNW,283,3.0,8.0,85,0.00,,CLR,0.00,VWS V14.01,2013-03-09 12:45:00,
2013-03-09 07:50:00,29.0,25.1,30.39,WNW,283,2.0,8.0,85,0.00,,CLR,0.00,VWS V14.01,2013-03-09 12:50:00,
2013-03-09 07:55:00,29.4,25.2,30.39,WNW,291,7.0,9.0,84,0.00,,CLR,0.00,VWS V14.01,2013-03-09 12:55:00,
2013-03-09 08:00:00,29.7,25.5,30.39,NW,311,4.0,9.0,84,0.00,,CLR,0.00,VWS V14.01,2013-03-09 13:00:00,
2013-03-09 08:05:00,29.9,25.1,30.39,WNW,290,5.0,11.0,82,0.00,,CLR,0.00,VWS V14.01,2013-03-09 13:05:00,
2013-03-09 08:10:00,30.2,25.4,30.39,WNW,290,5.0,11.0,82,0.00,,CLR,0.00,VWS V14.01,2013-03-09 13:10:00,
2013-03-09 08:14:00,30.3,25.5,30.39,WNW,290,9.0,11.0,82,0.00,,CLR,0.00,VWS V14.01,2013-03-09 13:14:00,
2013-03-09 08:19:00,30.6,25.8,30.39,WNW,283,4.0,11.0,82,0.00,,CLR,0.00,VWS V14.01,2013-03-09 13:19:00,
2013-03-09 08:24:00,31.1,26.3,30.39,WNW,285,3.0,11.0,82,0.00,,CLR,0.00,VWS V14.01,2013-03-09 13:24:00,
2013-03-09 08:29:00,31.6,26.5,30.39,West,273,5.0,11.0,81,0.00,,CLR,0.00,VWS V14.01,2013-03-09 13:29:00,
2013-03-09 08:34:00,32.0,26.5,30.39,West,274,4.0,9.0,80,0.00,,CLR,0.00,VWS V14.01,2013-03-09 13:34:00,
2013-03-09 08:39:00,32.4,26.9,30.39,WNW,286,8.0,9.0,80,0.00,,CLR,0.00,VWS V14.01,2013-03-09 13:39:00,
2013-03-09 08:44:00,32.7,26.9,30.39,WNW,290,2.0,9.0,79,0.00,,CLR,0.00,VWS V14.01,2013-03-09 13:44:00,
2013-03-09 08:49:00,33.2,27.4,30.39,WNW,291,5.0,9.0,79,0.00,,CLR,0.00,VWS V14.01,2013-03-09 13:49:00,
2013-03-09 08:54:00,33.9,28.1,30.39,WNW,286,3.0,9.0,79,0.00,,CLR,0.00,VWS V14.01,2013-03-09 13:54:00,
2013-03-09 08:59:00,34.5,27.7,30.39,West,277,6.0,9.0,76,0.00,,CLR,0.00,VWS V14.01,2013-03-09 13:59:00,
2013-03-09 09:04:00,34.8,28.0,30.39,WNW,293,6.0,8.0,76,0.00,,CLR,0.00,VWS V14.01,2013-03-09 14:04:00,
2013-03-09 09:09:00,35.1,28.0,30.39,West,278,6.0,9.0,75,0.00,,CLR,0.00,VWS V14.01,2013-03-09 14:09:00,
2013-03-09 09:14:00,35.4,28.3,30.39,WNW,283,5.0,9.0,75,0.00,,CLR,0.00,VWS V14.01,2013-03-09 14:14:00,
2013-03-09 09:19:00,36.1,28.3,30.39,WNW,294,7.0,9.0,73,0.00,,CLR,0.00,VWS V14.01,2013-03-09 14:19:00,
2013-03-09 09:24:00,36.9,29.1,30.39,WNW,298,7.0,9.0,73,0.00,,CLR,0.00,VWS V14.01,2013-03-09 14:24:00,
2013-03-09 09:29:00,37.4,28.5,30.39,WNW,293,9.0,9.0,70,0.00,,CLR,0.00,VWS V14.01,2013-03-09 14:29:00,
2013-03-09 09:34:00,37.8,28.9,30.39,NW,304,7.0,11.0,70,0.00,,CLR,0.00,VWS V14.01,2013-03-09 14:34:00,
2013-03-09 09:39:00,38.1,28.5,30.39,West,281,4.0,12.0,68,0.00,,CLR,0.00,VWS V14.01,2013-03-09 14:39:00,
2013-03-09 09:44:00,38.5,28.9,30.39,NW,308,4.0,12.0,68,0.00,,CLR,0.00,VWS V14.01,2013-03-09 14:44:00,
2013-03-09 09:49:00,38.9,28.9,30.39,West,281,6.0,12.0,67,0.00,,CLR,0.00,VWS V14.01,2013-03-09 14:49:00,
2013-03-09 09:54:00,39.4,28.2,30.39,West,276,6.0,12.0,64,0.00,,CLR,0.00,VWS V14.01,2013-03-09 14:54:00,
2013-03-09 09:59:00,39.6,28.4,30.39,WNW,286,7.0,12.0,64,0.00,,CLR,0.00,VWS V14.01,2013-03-09 14:59:00,
2013-03-09 10:04:00,40.0,28.8,30.39,WNW,291,3.0,8.0,64,0.00,,CLR,0.00,VWS V14.01,2013-03-09 15:04:00,
2013-03-09 10:09:00,40.7,29.1,30.38,WNW,295,3.0,8.0,63,0.00,,CLR,0.00,VWS V14.01,2013-03-09 15:09:00,
2013-03-09 10:14:00,41.4,29.4,30.38,West,280,4.0,8.0,62,0.00,,CLR,0.00,VWS V14.01,2013-03-09 15:14:00,
2013-03-09 10:19:00,41.7,28.9,30.38,West,278,6.0,8.0,60,0.00,,CLR,0.00,VWS V14.01,2013-03-09 15:19:00,
2013-03-09 10:24:00,41.9,28.6,30.38,WNW,288,3.0,8.0,59,0.00,,CLR,0.00,VWS V14.01,2013-03-09 15:24:00,
2013-03-09 10:29:00,42.4,28.7,30.38,WNW,291,4.0,8.0,58,0.00,,CLR,0.00,VWS V14.01,2013-03-09 15:29:00,
2013-03-09 10:34:00,42.9,29.2,30.38,WNW,285,3.0,7.0,58,0.00,,CLR,0.00,VWS V14.01,2013-03-09 15:34:00,
2013-03-09 10:39:00,43.2,28.6,30.38,WNW,291,3.0,7.0,56,0.00,,CLR,0.00,VWS V14.01,2013-03-09 15:39:00,
2013-03-09 10:44:00,43.3,29.1,30.38,West,278,3.0,8.0,57,0.00,,CLR,0.00,VWS V14.01,2013-03-09 15:44:00,
2013-03-09 10:49:00,43.9,29.2,30.38,SSE,164,1.0,8.0,56,0.00,,CLR,0.00,VWS V14.01,2013-03-09 15:49:00,
2013-03-09 10:54:00,44.2,28.6,30.38,WNW,290,2.0,8.0,54,0.00,,CLR,0.00,VWS V14.01,2013-03-09 15:54:00,
2013-03-09 10:59:00,44.3,28.3,30.37,WNW,290,5.0,8.0,53,0.00,,CLR,0.00,VWS V14.01,2013-03-09 15:59:00,
2013-03-09 11:04:00,45.3,29.2,30.37,South,190,3.0,7.0,53,0.00,,CLR,0.00,VWS V14.01,2013-03-09 16:04:00,
2013-03-09 11:09:00,45.4,28.8,30.36,WNW,294,3.0,8.0,52,0.00,,CLR,0.00,VWS V14.01,2013-03-09 16:09:00,
2013-03-09 11:14:00,45.9,28.8,30.36,WNW,291,3.0,8.0,51,0.00,,CLR,0.00,VWS V14.01,2013-03-09 16:14:00,
2013-03-09 11:19:00,45.8,29.2,30.36,West,269,1.0,8.0,52,0.00,,CLR,0.00,VWS V14.01,2013-03-09 16:19:00,
2013-03-09 11:24:00,45.9,28.8,30.35,SW,229,2.0,8.0,51,0.00,,CLR,0.00,VWS V14.01,2013-03-09 16:24:00,
2013-03-09 11:29:00,46.2,28.6,30.35,SW,218,4.0,10.0,50,0.00,,CLR,0.00,VWS V14.01,2013-03-09 16:29:00,
2013-03-09 11:34:00,46.7,28.6,30.35,SSW,203,3.0,6.0,49,0.00,,CLR,0.00,VWS V14.01,2013-03-09 16:34:00,
2013-03-09 11:39:00,47.1,28.9,30.34,WSW,245,2.0,6.0,49,0.00,,CLR,0.00,VWS V14.01,2013-03-09 16:39:00,
2013-03-09 11:44:00,47.7,29.0,30.34,SW,229,9.0,9.0,48,0.00,,CLR,0.00,VWS V14.01,2013-03-09 16:44:00,
2013-03-09 11:49:00,47.5,28.8,30.34,SW,236,5.0,9.0,48,0.00,,CLR,0.00,VWS V14.01,2013-03-09 16:49:00,
2013-03-09 11:54:00,48.2,28.9,30.34,West,264,2.0,9.0,47,0.00,,CLR,0.00,VWS V14.01,2013-03-09 16:54:00,
2013-03-09 11:59:00,48.9,28.5,30.34,WSW,240,3.0,9.0,45,0.00,,CLR,0.00,VWS V14.01,2013-03-09 16:59:00,
2013-03-09 12:04:00,49.0,28.6,30.33,SW,226,2.0,5.0,45,0.00,,CLR,0.00,VWS V14.01,2013-03-09 17:04:00,
2013-03-09 12:09:00,49.9,28.9,30.33,SSW,212,3.0,6.0,44,0.00,,CLR,0.00,VWS V14.01,2013-03-09 17:09:00,
2013-03-09 12:14:00,50.4,28.8,30.33,WNW,286,0.0,6.0,43,0.00,,CLR,0.00,VWS V14.01,2013-03-09 17:14:00,
2013-03-09 12:19:00,50.6,28.4,30.32,SW,223,3.0,6.0,42,0.00,,CLR,0.00,VWS V14.01,2013-03-09 17:19:00,
2013-03-09 12:24:00,50.5,28.3,30.33,WNW,287,2.0,7.0,42,0.00,,CLR,0.00,VWS V14.01,2013-03-09 17:24:00,
2013-03-09 12:29:00,50.6,29.0,30.32,WNW,284,1.0,7.0,43,0.00,,CLR,0.00,VWS V14.01,2013-03-09 17:29:00,
2013-03-09 12:34:00,50.9,28.6,30.32,North,11,0.0,4.0,42,0.00,,CLR,0.00,VWS V14.01,2013-03-09 17:34:00,
2013-03-09 12:39:00,51.6,28.7,30.32,SW,225,2.0,4.0,41,0.00,,CLR,0.00,VWS V14.01,2013-03-09 17:39:00,
2013-03-09 12:44:00,51.4,27.3,30.32,WNW,289,2.0,6.0,39,0.00,,CLR,0.00,VWS V14.01,2013-03-09 17:44:00,
2013-03-09 12:49:00,51.2,27.1,30.32,West,276,2.0,6.0,39,0.00,,CLR,0.00,VWS V14.01,2013-03-09 17:49:00,
2013-03-09 12:54:00,51.8,28.3,30.32,WNW,287,5.0,6.0,40,0.00,,CLR,0.00,VWS V14.01,2013-03-09 17:54:00,
2013-03-09 12:59:00,52.1,27.9,30.31,ESE,122,2.0,6.0,39,0.00,,CLR,0.00,VWS V14.01,2013-03-09 17:59:00,
2013-03-09 13:04:00,52.3,26.8,30.31,SSW,212,2.0,7.0,37,0.00,,CLR,0.00,VWS V14.01,2013-03-09 18:04:00,
2013-03-09 13:09:00,52.6,28.4,30.31,ENE,58,1.0,7.0,39,0.00,,CLR,0.00,VWS V14.01,2013-03-09 18:09:00,
2013-03-09 13:14:00,53.2,27.0,30.30,SW,225,7.0,7.0,36,0.00,,CLR,0.00,VWS V14.01,2013-03-09 18:14:00,
2013-03-09 13:19:00,52.8,28.5,30.30,WNW,300,2.0,7.0,39,0.00,,CLR,0.00,VWS V14.01,2013-03-09 18:19:00,
2013-03-09 13:24:00,52.7,27.8,30.30,West,266,3.0,7.0,38,0.00,,CLR,0.00,VWS V14.01,2013-03-09 18:24:00,
2013-03-09 13:29:00,52.2,28.0,30.30,SW,235,1.0,7.0,39,0.00,,CLR,0.00,VWS V14.01,2013-03-09 18:29:00,
2013-03-09 13:34:00,53.3,29.0,30.30,West,273,0.0,3.0,39,0.00,,CLR,0.00,VWS V14.01,2013-03-09 18:34:00,
2013-03-09 13:39:00,53.8,28.8,30.30,West,278,1.0,4.0,38,0.00,,CLR,0.00,VWS V14.01,2013-03-09 18:39:00,
2013-03-09 13:44:00,53.9,27.6,30.29,West,269,1.0,5.0,36,0.00,,CLR,0.00,VWS V14.01,2013-03-09 18:44:00,
2013-03-09 13:49:00,54.2,27.9,30.29,WNW,286,3.0,6.0,36,0.00,,CLR,0.00,VWS V14.01,2013-03-09 18:49:00,
2013-03-09 13:54:00,54.4,29.3,30.29,SW,215,4.0,8.0,38,0.00,,CLR,0.00,VWS V14.01,2013-03-09 18:54:00,
2013-03-09 13:59:00,54.3,27.9,30.29,WNW,302,4.0,8.0,36,0.00,,CLR,0.00,VWS V14.01,2013-03-09 18:59:00,
2013-03-09 14:04:00,54.3,28.6,30.29,SW,235,2.0,7.0,37,0.00,,CLR,0.00,VWS V14.01,2013-03-09 19:04:00,
2013-03-09 14:09:00,54.5,28.1,30.29,SSW,197,1.0,7.0,36,0.00,,CLR,0.00,VWS V14.01,2013-03-09 19:09:00,
2013-03-09 14:14:00,54.7,28.3,30.29,SW,219,3.0,8.0,36,0.00,,CLR,0.00,VWS V14.01,2013-03-09 19:14:00,
2013-03-09 14:19:00,54.7,29.0,30.29,WNW,302,1.0,8.0,37,0.00,,CLR,0.00,VWS V14.01,2013-03-09 19:19:00,
2013-03-09 14:24:00,55.3,28.8,30.29,NW,307,6.0,8.0,36,0.00,,CLR,0.00,VWS V14.01,2013-03-09 19:24:00,
2013-03-09 14:29:00,55.3,28.1,30.28,SW,236,1.0,8.0,35,0.00,,CLR,0.00,VWS V14.01,2013-03-09 19:29:00,
2013-03-09 14:34:00,55.4,28.2,30.28,SW,219,6.0,7.0,35,0.00,,CLR,0.00,VWS V14.01,2013-03-09 19:34:00,
2013-03-09 14:39:00,55.5,29.0,30.28,NW,314,2.0,7.0,36,0.00,,CLR,0.00,VWS V14.01,2013-03-09 19:39:00,
2013-03-09 14:44:00,56.0,29.4,30.28,West,280,1.0,7.0,36,0.00,,CLR,0.00,VWS V14.01,2013-03-09 19:44:00,
2013-03-09 14:49:00,56.2,28.9,30.28,West,278,3.0,7.0,35,0.00,,CLR,0.00,VWS V14.01,2013-03-09 19:49:00,
2013-03-09 14:54:00,56.6,30.0,30.28,WSW,249,1.0,7.0,36,0.00,,CLR,0.00,VWS V14.01,2013-03-09 19:54:00,
2013-03-09 14:59:00,56.8,28.8,30.27,WNW,294,0.0,7.0,34,0.00,,CLR,0.00,VWS V14.01,2013-03-09 19:59:00,
2013-03-09 15:04:00,57.1,28.3,30.27,SW,232,3.0,5.0,33,0.00,,CLR,0.00,VWS V14.01,2013-03-09 20:04:00,
2013-03-09 15:09:00,57.2,29.1,30.27,SW,218,4.0,5.0,34,0.00,,CLR,0.00,VWS V14.01,2013-03-09 20:09:00,
2013-03-09 15:14:00,57.2,29.8,30.27,West,281,2.0,7.0,35,0.00,,CLR,0.00,VWS V14.01,2013-03-09 20:14:00,
2013-03-09 15:19:00,57.2,29.1,30.27,SSW,212,4.0,8.0,34,0.00,,CLR,0.00,VWS V14.01,2013-03-09 20:19:00,
2013-03-09 15:24:00,57.3,29.9,30.27,WSW,252,3.0,8.0,35,0.00,,CLR,0.00,VWS V14.01,2013-03-09 20:24:00,
2013-03-09 15:29:00,57.4,28.5,30.27,SW,224,1.0,8.0,33,0.00,,CLR,0.00,VWS V14.01,2013-03-09 20:29:00,
2013-03-09 15:34:00,57.5,28.6,30.27,SW,229,4.0,6.0,33,0.00,,CLR,0.00,VWS V14.01,2013-03-09 20:34:00,
2013-03-09 15:39:00,57.6,28.0,30.27,West,269,2.0,6.0,32,0.00,,CLR,0.00,VWS V14.01,2013-03-09 20:39:00,
2013-03-09 15:44:00,58.1,28.4,30.27,WSW,257,2.0,6.0,32,0.00,,CLR,0.00,VWS V14.01,2013-03-09 20:44:00,
2013-03-09 15:49:00,58.2,29.3,30.27,SSW,193,1.0,6.0,33,0.00,,CLR,0.00,VWS V14.01,2013-03-09 20:49:00,
2013-03-09 15:54:00,58.7,28.9,30.26,West,271,1.0,6.0,32,0.00,,CLR,0.00,VWS V14.01,2013-03-09 20:54:00,
2013-03-09 15:59:00,58.5,28.0,30.26,West,266,1.0,6.0,31,0.00,,CLR,0.00,VWS V14.01,2013-03-09 20:59:00,
2013-03-09 16:04:00,58.5,28.0,30.26,WSW,253,3.0,4.0,31,0.00,,CLR,0.00,VWS V14.01,2013-03-09 21:04:00,
2013-03-09 16:09:00,58.6,28.9,30.26,SW,235,1.0,5.0,32,0.00,,CLR,0.00,VWS V14.01,2013-03-09 21:09:00,
2013-03-09 16:14:00,58.8,28.3,30.26,WNW,286,3.0,5.0,31,0.00,,CLR,0.00,VWS V14.01,2013-03-09 21:14:00,
2013-03-09 16:19:00,58.5,27.2,30.26,SW,231,1.0,5.0,30,0.00,,CLR,0.00,VWS V14.01,2013-03-09 21:19:00,
2013-03-09 16:24:00,58.7,28.2,30.26,WNW,286,2.0,5.0,31,0.00,,CLR,0.00,VWS V14.01,2013-03-09 21:24:00,
2013-03-09 16:29:00,58.8,27.5,30.26,SW,233,2.0,5.0,30,0.00,,CLR,0.00,VWS V14.01,2013-03-09 21:29:00,
2013-03-09 16:34:00,58.4,27.1,30.26,SSW,205,1.0,5.0,30,0.00,,CLR,0.00,VWS V14.01,2013-03-09 21:34:00,
2013-03-09 16:39:00,58.2,26.9,30.26,SW,215,2.0,5.0,30,0.00,,CLR,0.00,VWS V14.01,2013-03-09 21:39:00,
2013-03-09 16:44:00,58.3,26.2,30.25,NNE,29,1.0,5.0,29,0.00,,CLR,0.00,VWS V14.01,2013-03-09 21:44:00,
2013-03-09 16:49:00,58.6,26.5,30.25,South,188,0.0,5.0,29,0.00,,CLR,0.00,VWS V14.01,2013-03-09 21:49:00,
2013-03-09 16:54:00,58.7,25.7,30.25,SW,218,1.0,5.0,28,0.00,,CLR,0.00,VWS V14.01,2013-03-09 21:54:00,
2013-03-09 16:59:00,58.6,26.5,30.25,SW,231,1.0,5.0,29,0.00,,CLR,0.00,VWS V14.01,2013-03-09 21:59:00,
2013-03-09 17:04:00,58.6,28.1,30.25,SW,229,0.0,3.0,31,0.00,,CLR,0.00,VWS V14.01,2013-03-09 22:04:00,
2013-03-09 17:09:00,59.2,27.8,30.25,SW,232,1.0,3.0,30,0.00,,CLR,0.00,VWS V14.01,2013-03-09 22:09:00,
2013-03-09 17:14:00,59.1,26.9,30.25,ESE,115,0.0,3.0,29,0.00,,CLR,0.00,VWS V14.01,2013-03-09 22:14:00,
2013-03-09 17:19:00,58.5,27.2,30.25,East,82,0.0,3.0,30,0.00,,CLR,0.00,VWS V14.01,2013-03-09 22:19:00,
2013-03-09 17:24:00,58.4,27.1,30.25,East,96,1.0,3.0,30,0.00,,CLR,0.00,VWS V14.01,2013-03-09 22:24:00,
2013-03-09 17:29:00,57.9,26.7,30.25,East,86,1.0,3.0,30,0.00,,CLR,0.00,VWS V14.01,2013-03-09 22:29:00,
2013-03-09 17:34:00,57.5,26.3,30.25,ESE,123,0.0,3.0,30,0.00,,CLR,0.00,VWS V14.01,2013-03-09 22:34:00,
2013-03-09 17:39:00,57.4,27.0,30.26,ESE,104,0.0,3.0,31,0.00,,CLR,0.00,VWS V14.01,2013-03-09 22:39:00,
2013-03-09 17:44:00,57.3,27.0,30.26,ESE,118,1.0,3.0,31,0.00,,CLR,0.00,VWS V14.01,2013-03-09 22:44:00,
2013-03-09 17:49:00,56.7,26.4,30.26,ESE,118,0.0,3.0,31,0.00,,CLR,0.00,VWS V14.01,2013-03-09 22:49:00,
2013-03-09 17:54:00,56.0,26.6,30.26,ESE,114,0.0,3.0,32,0.00,,CLR,0.00,VWS V14.01,2013-03-09 22:54:00,
2013-03-09 17:59:00,55.2,28.0,30.26,SW,221,1.0,3.0,35,0.00,,CLR,0.00,VWS V14.01,2013-03-09 22:59:00,
2013-03-09 18:04:00,53.8,30.1,30.26,SW,222,0.0,1.0,40,0.00,,CLR,0.00,VWS V14.01,2013-03-09 23:04:00,
2013-03-09 18:09:00,52.6,30.2,30.26,SW,222,0.0,1.0,42,0.00,,CLR,0.00,VWS V14.01,2013-03-09 23:09:00,
2013-03-09 18:14:00,51.5,29.2,30.27,SW,222,0.0,1.0,42,0.00,,CLR,0.00,VWS V14.01,2013-03-09 23:14:00,
2013-03-09 18:19:00,50.5,29.4,30.27,SW,222,0.0,1.0,44,0.00,,CLR,0.00,VWS V14.01,2013-03-09 23:19:00,
2013-03-09 18:24:00,49.6,29.7,30.27,SW,222,0.0,1.0,46,0.00,,CLR,0.00,VWS V14.01,2013-03-09 23:24:00,
2013-03-09 18:29:00,48.8,30.0,30.27,SW,222,0.0,1.0,48,0.00,,CLR,0.00,VWS V14.01,2013-03-09 23:29:00,
2013-03-09 18:34:00,48.0,29.8,30.27,SW,222,0.0,0.0,49,0.00,,CLR,0.00,VWS V14.01,2013-03-09 23:34:00,
2013-03-09 18:39:00,47.8,28.6,30.27,East,98,0.0,1.0,47,0.00,,CLR,0.00,VWS V14.01,2013-03-09 23:39:00,
2013-03-09 18:44:00,47.8,28.0,30.27,NE,49,2.0,2.0,46,0.00,,CLR,0.00,VWS V14.01,2013-03-09 23:44:00,
2013-03-09 18:49:00,47.6,28.4,30.27,East,80,2.0,2.0,47,0.00,,CLR,0.00,VWS V14.01,2013-03-09 23:49:00,
2013-03-09 18:54:00,47.3,28.1,30.26,East,93,2.0,2.0,47,0.00,,CLR,0.00,VWS V14.01,2013-03-09 23:54:00,
2013-03-09 18:59:00,46.9,27.7,30.26,East,90,0.0,2.0,47,0.00,,CLR,0.00,VWS V14.01,2013-03-09 23:59:00,
2013-03-09 19:04:00,46.3,28.2,30.26,ENE,67,1.0,1.0,49,0.00,,CLR,0.00,VWS V14.01,2013-03-10 00:04:00,
2013-03-09 19:09:00,46.0,27.9,30.26,NE,53,1.0,2.0,49,0.00,,CLR,0.00,VWS V14.01,2013-03-10 00:09:00,
2013-03-09 19:14:00,46.2,28.1,30.27,East,84,1.0,2.0,49,0.00,,CLR,0.00,VWS V14.01,2013-03-10 00:14:00,
2013-03-09 19:19:00,46.1,28.5,30.27,East,80,2.0,3.0,50,0.00,,CLR,0.00,VWS V14.01,2013-03-10 00:19:00,
2013-03-09 19:24:00,45.8,28.2,30.27,East,91,0.0,3.0,50,0.00,,CLR,0.00,VWS V14.01,2013-03-10 00:24:00,
2013-03-09 19:29:00,45.6,28.0,30.27,ESE,105,0.0,3.0,50,0.00,,CLR,0.00,VWS V14.01,2013-03-10 00:29:00,
2013-03-09 19:34:00,45.5,28.0,30.27,ENE,74,0.0,1.0,50,0.00,,CLR,0.00,VWS V14.01,2013-03-10 00:34:00,
2013-03-09 19:39:00,45.0,28.0,30.27,East,98,2.0,3.0,51,0.00,,CLR,0.00,VWS V14.01,2013-03-10 00:39:00,
2013-03-09 19:44:00,44.4,28.4,30.27,East,79,0.0,3.0,53,0.00,,CLR,0.00,VWS V14.01,2013-03-10 00:44:00,
2013-03-09 19:49:00,43.8,27.8,30.27,ENE,76,0.0,3.0,53,0.00,,CLR,0.00,VWS V14.01,2013-03-10 00:49:00,
2013-03-09 19:54:00,43.5,28.4,30.28,NE,36,2.0,3.0,55,0.00,,CLR,0.00,VWS V14.01,2013-03-10 00:54:00,
2013-03-09 19:59:00,43.3,28.2,30.28,NNE,30,3.0,3.0,55,0.00,,CLR,0.00,VWS V14.01,2013-03-10 00:59:00,
2013-03-09 20:04:00,42.9,28.3,30.28,East,82,1.0,5.0,56,0.00,,CLR,0.00,VWS V14.01,2013-03-10 01:04:00,
2013-03-09 20:09:00,42.6,28.5,30.28,ENE,75,1.0,5.0,57,0.00,,CLR,0.00,VWS V14.01,2013-03-10 01:09:00,
2013-03-09 20:14:00,42.1,28.4,30.28,NE,40,2.0,5.0,58,0.00,,CLR,0.00,VWS V14.01,2013-03-10 01:14:00,
2013-03-09 20:19:00,41.7,28.4,30.28,East,84,1.0,5.0,59,0.00,,CLR,0.00,VWS V14.01,2013-03-10 01:19:00,
2013-03-09 20:24:00,41.2,28.4,30.28,ENE,71,1.0,5.0,60,0.00,,CLR,0.00,VWS V14.01,2013-03-10 01:24:00,
2013-03-09 20:29:00,41.0,28.2,30.28,ENE,67,1.0,5.0,60,0.00,,CLR,0.00,VWS V14.01,2013-03-10 01:29:00,
2013-03-09 20:34:00,41.1,28.3,30.28,NNE,27,1.0,3.0,60,0.00,,CLR,0.00,VWS V14.01,2013-03-10 01:34:00,
2013-03-09 20:39:00,40.8,28.0,30.28,ESE,113,0.0,3.0,60,0.00,,CLR,0.00,VWS V14.01,2013-03-10 01:39:00,
2013-03-09 20:44:00,40.4,28.0,30.28,NNE,27,1.0,3.0,61,0.00,,CLR,0.00,VWS V14.01,2013-03-10 01:44:00,
2013-03-09 20:49:00,40.1,28.1,30.28,ESE,107,2.0,5.0,62,0.00,,CLR,0.00,VWS V14.01,2013-03-10 01:49:00,
2013-03-09 20:54:00,39.7,28.1,30.28,East,93,1.0,5.0,63,0.00,,CLR,0.00,VWS V14.01,2013-03-10 01:54:00,
2013-03-09 20:59:00,39.4,27.9,30.28,NE,56,0.0,5.0,63,0.00,,CLR,0.00,VWS V14.01,2013-03-10 01:59:00,
2013-03-09 21:04:00,39.2,28.1,30.28,NE,39,1.0,2.0,64,0.00,,CLR,0.00,VWS V14.01,2013-03-10 02:04:00,
2013-03-09 21:09:00,39.2,28.1,30.28,NNE,27,1.0,2.0,64,0.00,,CLR,0.00,VWS V14.01,2013-03-10 02:09:00,
2013-03-09 21:14:00,39.1,28.0,30.28,NNE,32,0.0,2.0,64,0.00,,CLR,0.00,VWS V14.01,2013-03-10 02:14:00,
2013-03-09 21:19:00,38.8,27.7,30.28,NE,42,2.0,3.0,64,0.00,,CLR,0.00,VWS V14.01,2013-03-10 02:19:00,
2013-03-09 21:24:00,38.6,27.9,30.29,ENE,65,1.0,3.0,65,0.00,,CLR,0.00,VWS V14.01,2013-03-10 02:24:00,
2013-03-09 21:29:00,38.5,27.8,30.29,NE,43,1.0,4.0,65,0.00,,CLR,0.00,VWS V14.01,2013-03-10 02:29:00,
2013-03-09 21:34:00,38.2,27.5,30.29,NE,44,1.0,2.0,65,0.00,,CLR,0.00,VWS V14.01,2013-03-10 02:34:00,
2013-03-09 21:39:00,37.7,27.4,30.29,NE,44,0.0,4.0,66,0.00,,CLR,0.00,VWS V14.01,2013-03-10 02:39:00,
2013-03-09 21:44:00,37.5,27.5,30.29,NE,40,1.0,4.0,67,0.00,,CLR,0.00,VWS V14.01,2013-03-10 02:44:00,
2013-03-09 21:49:00,37.3,27.7,30.29,NNE,31,2.0,4.0,68,0.00,,CLR,0.00,VWS V14.01,2013-03-10 02:49:00,
2013-03-09 21:54:00,37.6,27.6,30.29,NNE,32,0.0,4.0,67,0.00,,CLR,0.00,VWS V14.01,2013-03-10 02:54:00,
2013-03-09 21:59:00,37.7,27.8,30.29,NE,44,3.0,4.0,67,0.00,,CLR,0.00,VWS V14.01,2013-03-10 02:59:00,
2013-03-09 22:04:00,37.7,27.4,30.29,NNE,29,2.0,5.0,66,0.00,,CLR,0.00,VWS V14.01,2013-03-10 03:04:00,
2013-03-09 22:09:00,37.0,27.1,30.29,NE,41,2.0,5.0,67,0.00,,CLR,0.00,VWS V14.01,2013-03-10 03:09:00,
2013-03-09 22:14:00,36.5,27.3,30.29,ENE,69,0.0,5.0,69,0.00,,CLR,0.00,VWS V14.01,2013-03-10 03:14:00,
2013-03-09 22:19:00,36.1,27.3,30.29,East,100,2.0,5.0,70,0.00,,CLR,0.00,VWS V14.01,2013-03-10 03:19:00,
2013-03-09 22:24:00,35.6,27.1,30.29,ENE,70,1.0,5.0,71,0.00,,CLR,0.00,VWS V14.01,2013-03-10 03:24:00,
2013-03-09 22:29:00,35.3,27.2,30.29,ENE,60,0.0,5.0,72,0.00,,CLR,0.00,VWS V14.01,2013-03-10 03:29:00,
2013-03-09 22:34:00,35.1,27.0,30.29,ENE,62,0.0,0.0,72,0.00,,CLR,0.00,VWS V14.01,2013-03-10 03:34:00,
2013-03-09 22:39:00,34.9,27.1,30.29,ENE,62,0.0,0.0,73,0.00,,CLR,0.00,VWS V14.01,2013-03-10 03:39:00,
2013-03-09 22:44:00,34.7,27.0,30.29,East,85,0.0,0.0,73,0.00,,CLR,0.00,VWS V14.01,2013-03-10 03:44:00,
2013-03-09 22:49:00,34.5,26.8,30.29,ESE,110,0.0,0.0,73,0.00,,CLR,0.00,VWS V14.01,2013-03-10 03:49:00,
2013-03-09 22:54:00,34.3,26.9,30.29,ESE,110,0.0,0.0,74,0.00,,CLR,0.00,VWS V14.01,2013-03-10 03:54:00,
2013-03-09 22:59:00,34.3,26.9,30.30,North,6,1.0,2.0,74,0.00,,CLR,0.00,VWS V14.01,2013-03-10 03:59:00,
2013-03-09 23:04:00,34.1,26.7,30.30,North,6,0.0,1.0,74,0.00,,CLR,0.00,VWS V14.01,2013-03-10 04:04:00,
2013-03-09 23:09:00,33.9,26.8,30.30,North,6,0.0,1.0,75,0.00,,CLR,0.00,VWS V14.01,2013-03-10 04:09:00,
2013-03-09 23:14:00,33.7,26.6,30.30,North,6,0.0,1.0,75,0.00,,CLR,0.00,VWS V14.01,2013-03-10 04:14:00,
2013-03-09 23:19:00,33.4,26.7,30.30,North,352,0.0,1.0,76,0.00,,CLR,0.00,VWS V14.01,2013-03-10 04:19:00,
2013-03-09 23:24:00,33.1,26.4,30.29,East,100,0.0,1.0,76,0.00,,CLR,0.00,VWS V14.01,2013-03-10 04:24:00,
2013-03-09 23:29:00,33.0,26.6,30.29,East,100,0.0,1.0,77,0.00,,CLR,0.00,VWS V14.01,2013-03-10 04:29:00,
2013-03-09 23:34:00,33.0,26.6,30.29,East,86,0.0,0.0,77,0.00,,CLR,0.00,VWS V14.01,2013-03-10 04:34:00,
2013-03-09 23:39:00,32.8,26.4,30.29,East,86,0.0,0.0,77,0.00,,CLR,0.00,VWS V14.01,2013-03-10 04:39:00,
2013-03-09 23:44:00,32.6,26.2,30.29,East,86,0.0,0.0,77,0.00,,CLR,0.00,VWS V14.01,2013-03-10 04:44:00,
2013-03-09 23:49:00,32.4,26.3,30.29,ESE,105,0.0,0.0,78,0.00,,CLR,0.00,VWS V14.01,2013-03-10 04:49:00,
2013-03-09 23:54:00,32.4,26.3,30.29,ENE,60,0.0,2.0,78,0.00,,CLR,0.00,VWS V14.01,2013-03-10 04:54:00,
2013-03-09 23:59:00,32.3,26.2,30.29,ENE,60,2.0,3.0,78,0.00,,CLR,0.00,VWS V14.01,2013-03-10 04:59:00,